When you browse on this site, cookies collect data to enhance your experience and personalize the content and advertising you see.
Visit our Privacy Policy to learn more. By continuing to use the site, you agree to this use of cookies and data.
  • In Hungary
  • List of Countries
  • For 7 days
  • Water Temperature
  • Satellite Maps
  • Weather Map
  • News
  • Weather Widgets
  • user-avatar
    Login

    Hourly Weather Munster

    Today, 24 July, Wednesday

    Time Temperature Precipitation Wind Pressure Humidity
    00:00 +20°C° 0 mm 2 mps 749 mmHg 71%
    01:00 +21°C° 0 mm 1 mps 748 mmHg 72%
    02:00 +20°C° 0 mm 1 mps 748 mmHg 73%
    03:00 +20°C° 0 mm 1 mps 748 mmHg 74%
    04:00 +20°C° 0 mm 1 mps 748 mmHg 73%
    05:00 +21°C° 0 mm 1 mps 749 mmHg 72%
    06:00 +21°C° 0 mm 1 mps 749 mmHg 72%
    07:00 +23°C° 0 mm 1 mps 749 mmHg 65%
    08:00 +24°C° 0 mm 2 mps 749 mmHg 59%
    09:00 +25°C° 0 mm 2 mps 750 mmHg 52%
    10:00 +26°C° 0 mm 2 mps 750 mmHg 48%
    11:00 +27°C° 0 mm 3 mps 750 mmHg 44%
    12:00 +27°C° 0 mm 3 mps 749 mmHg 40%
    13:00 +27°C° 0 mm 3 mps 749 mmHg 40%
    14:00 +27°C° 0 mm 3 mps 749 mmHg 40%
    15:00 +27°C° 0 mm 3 mps 748 mmHg 39%
    16:00 +26°C° 0 mm 3 mps 748 mmHg 42%
    17:00 +25°C° 0 mm 2 mps 748 mmHg 44%
    18:00 +25°C° 0 mm 2 mps 749 mmHg 47%
    19:00 +23°C° 0 mm 2 mps 749 mmHg 49%
    20:00 +22°C° 0 mm 1 mps 749 mmHg 51%
    21:00 +21°C° 0 mm 1 mps 749 mmHg 54%
    22:00 +21°C° 0 mm 1 mps 749 mmHg 56%
    23:00 +20°C° 0 mm 1 mps 749 mmHg 58%

    Tomorrow, 25 July, Thursday

    Time Temperature Precipitation Wind Pressure Humidity
    00:00 +20°C° 0 mm 1 mps 749 mmHg 60%
    01:00 +19°C° 0 mm 2 mps 749 mmHg 63%
    02:00 +18°C° 0 mm 2 mps 749 mmHg 67%
    03:00 +18°C° 0 mm 2 mps 749 mmHg 70%
    04:00 +18°C° 0 mm 2 mps 749 mmHg 70%
    05:00 +18°C° 0 mm 2 mps 750 mmHg 71%
    06:00 +18°C° 0 mm 2 mps 750 mmHg 72%
    07:00 +20°C° 0 mm 2 mps 750 mmHg 66%
    08:00 +23°C° 0 mm 2 mps 750 mmHg 60%
    09:00 +25°C° 0 mm 2 mps 750 mmHg 55%
    10:00 +26°C° 0 mm 2 mps 750 mmHg 53%
    11:00 +27°C° 0 mm 3 mps 750 mmHg 51%
    12:00 +28°C° 0 mm 3 mps 750 mmHg 49%
    13:00 +28°C° 0 mm 3 mps 750 mmHg 50%
    14:00 +28°C° 0 mm 3 mps 750 mmHg 52%
    15:00 +28°C° 0 mm 4 mps 749 mmHg 53%
    16:00 +27°C° 0 mm 3 mps 749 mmHg 57%
    17:00 +27°C° 0 mm 3 mps 749 mmHg 61%
    18:00 +26°C° 0 mm 3 mps 749 mmHg 64%
    19:00 +25°C° 0 mm 3 mps 749 mmHg 67%
    20:00 +24°C° 0 mm 3 mps 750 mmHg 70%
    21:00 +23°C° 0 mm 2 mps 750 mmHg 72%
    22:00 +21°C° 0 mm 2 mps 750 mmHg 73%
    23:00 +21°C° 0 mm 2 mps 750 mmHg 75%

    Day after tomorrow, 26 July, Friday

    Time Temperature Precipitation Wind Pressure Humidity
    00:00 +20°C° 0 mm 2 mps 750 mmHg 76%
    01:00 +20°C° 0 mm 2 mps 750 mmHg 77%
    02:00 +20°C° 0 mm 2 mps 750 mmHg 79%
    03:00 +19°C° 0 mm 2 mps 750 mmHg 80%
    04:00 +19°C° 0 mm 2 mps 750 mmHg 80%
    05:00 +19°C° 0 mm 2 mps 750 mmHg 80%
    06:00 +20°C° 0 mm 2 mps 750 mmHg 79%
    07:00 +21°C° 0 mm 3 mps 751 mmHg 75%
    08:00 +24°C° 0 mm 3 mps 751 mmHg 70%
    09:00 +25°C° 0 mm 3 mps 751 mmHg 66%
    10:00 +26°C° 0 mm 3 mps 751 mmHg 64%
    11:00 +27°C° 0 mm 4 mps 751 mmHg 61%
    12:00 +28°C° 0 mm 4 mps 751 mmHg 59%
    13:00 +29°C° 0 mm 4 mps 750 mmHg 60%
    14:00 +29°C° 0 mm 4 mps 750 mmHg 61%
    15:00 +29°C° 0 mm 5 mps 749 mmHg 62%
    16:00 +28°C° 0 mm 4 mps 749 mmHg 65%
    17:00 +28°C° 0 mm 4 mps 749 mmHg 69%
    18:00 +27°C° 0 mm 4 mps 749 mmHg 73%
    19:00 +26°C° 0 mm 4 mps 749 mmHg 76%
    20:00 +25°C° 0 mm 4 mps 749 mmHg 79%
    21:00 +24°C° 0 mm 3 mps 750 mmHg 82%
    22:00 +24°C° 0 mm 3 mps 750 mmHg 83%
    23:00 +22°C° 0 mm 3 mps 749 mmHg 84%

    27 July, Saturday

    Time Temperature Precipitation Wind Pressure Humidity
    00:00 +22°C° 0 mm 3 mps 749 mmHg 85%
    01:00 +21°C° 0 mm 3 mps 749 mmHg 85%
    02:00 +21°C° 0 mm 3 mps 749 mmHg 85%
    03:00 +21°C° 0 mm 3 mps 749 mmHg 85%
    04:00 +21°C° 0 mm 3 mps 749 mmHg 84%
    05:00 +21°C° 0 mm 3 mps 749 mmHg 82%
    06:00 +21°C° 0 mm 3 mps 750 mmHg 81%
    07:00 +22°C° 0 mm 4 mps 750 mmHg 77%
    08:00 +25°C° 0 mm 4 mps 750 mmHg 73%
    09:00 +26°C° 0 mm 4 mps 750 mmHg 69%
    10:00 +27°C° 0 mm 4 mps 750 mmHg 65%
    11:00 +29°C° 0 mm 5 mps 750 mmHg 61%
    12:00 +30°C° 0 mm 5 mps 750 mmHg 58%
    13:00 +30°C° 0 mm 5 mps 749 mmHg 58%
    14:00 +30°C° 0 mm 5 mps 749 mmHg 59%
    15:00 +30°C° 0 mm 5 mps 749 mmHg 59%
    16:00 +30°C° 0 mm 5 mps 748 mmHg 63%
    17:00 +29°C° 0 mm 5 mps 748 mmHg 67%
    18:00 +28°C° 0 mm 4 mps 748 mmHg 72%
    19:00 +27°C° 0 mm 4 mps 748 mmHg 75%
    20:00 +26°C° 0 mm 4 mps 748 mmHg 78%
    21:00 +26°C° 0 mm 4 mps 748 mmHg 81%
    22:00 +25°C° 0 mm 4 mps 748 mmHg 82%
    23:00 +25°C° 0 mm 4 mps 748 mmHg 82%

    28 July, Sunday

    Time Temperature Precipitation Wind Pressure Humidity
    00:00 +23°C° 0 mm 4 mps 748 mmHg 83%
    01:00 +23°C° 0 mm 4 mps 748 mmHg 83%
    02:00 +23°C° 0 mm 4 mps 748 mmHg 83%
    03:00 +22°C° 0 mm 4 mps 748 mmHg 83%
    04:00 +22°C° 0 mm 4 mps 747 mmHg 84%
    05:00 +22°C° 0 mm 4 mps 747 mmHg 85%
    06:00 +22°C° 0 mm 4 mps 747 mmHg 85%
    07:00 +25°C° 0 mm 5 mps 748 mmHg 80%
    08:00 +26°C° 0 mm 5 mps 748 mmHg 75%
    09:00 +28°C° 0 mm 5 mps 748 mmHg 69%
    10:00 +29°C° 0 mm 5 mps 748 mmHg 67%
    11:00 +30°C° 0 mm 6 mps 747 mmHg 64%
    12:00 +32°C° 0 mm 6 mps 747 mmHg 61%
    13:00 +32°C° 0 mm 6 mps 747 mmHg 61%
    14:00 +32°C° 0 mm 6 mps 747 mmHg 62%
    15:00 +32°C° 0 mm 6 mps 746 mmHg 62%
    16:00 +30°C° 0.3 mm 5 mps 746 mmHg 65%
    17:00 +30°C° 0.3 mm 5 mps 746 mmHg 69%
    18:00 +29°C° 0.3 mm 4 mps 746 mmHg 72%
    19:00 +28°C° 0 mm 4 mps 746 mmHg 75%
    20:00 +27°C° 0 mm 4 mps 746 mmHg 78%
    21:00 +26°C° 0 mm 4 mps 746 mmHg 81%
    22:00 +26°C° 0 mm 4 mps 746 mmHg 82%
    23:00 +25°C° 0 mm 4 mps 745 mmHg 82%

    29 July, Monday

    Time Temperature Precipitation Wind Pressure Humidity
    00:00 +25°C° 0 mm 4 mps 745 mmHg 83%
    01:00 +25°C° 0 mm 4 mps 745 mmHg 83%
    02:00 +23°C° 0 mm 4 mps 745 mmHg 82%
    03:00 +23°C° 0 mm 5 mps 744 mmHg 82%
    04:00 +23°C° 0.3 mm 5 mps 744 mmHg 83%
    05:00 +23°C° 0.3 mm 5 mps 744 mmHg 84%
    06:00 +23°C° 0.3 mm 4 mps 744 mmHg 86%
    07:00 +25°C° 0.1 mm 4 mps 745 mmHg 83%
    08:00 +25°C° 0.1 mm 4 mps 745 mmHg 80%
    09:00 +26°C° 0.1 mm 4 mps 745 mmHg 77%
    10:00 +27°C° 0 mm 4 mps 745 mmHg 72%
    11:00 +28°C° 0 mm 3 mps 745 mmHg 68%
    12:00 +29°C° 0 mm 3 mps 744 mmHg 63%
    13:00 +29°C° 0.1 mm 4 mps 744 mmHg 63%
    14:00 +29°C° 0.1 mm 4 mps 744 mmHg 62%
    15:00 +29°C° 0.1 mm 4 mps 744 mmHg 62%
    16:00 +28°C° 0.1 mm 4 mps 744 mmHg 65%
    17:00 +27°C° 0.1 mm 4 mps 743 mmHg 68%
    18:00 +26°C° 0.1 mm 4 mps 743 mmHg 70%
    19:00 +26°C° 0 mm 3 mps 743 mmHg 72%
    20:00 +25°C° 0 mm 3 mps 743 mmHg 74%
    21:00 +24°C° 0 mm 3 mps 744 mmHg 76%
    22:00 +24°C° 0 mm 3 mps 743 mmHg 78%
    23:00 +24°C° 0 mm 3 mps 743 mmHg 80%
    Show more